FENGYUN 1C DEB, 41824

Orbit data source: Space-Track

FENGYUN 1C DEB, 41824 is space debris in SSO originally from a launch on Mon, 10 May 1999 UTC launched from the Taiyaun Space Center, China (TSC). Fengyun 1C debris stems from the Chinese weather satellite Fengyun-1C, which was intentionally destroyed by a Chinese anti-satellite missile in 2007. This event dramatically increased the amount of space debris, with thousands of trackable fragments posing hazards to satellites and human spaceflight. The Fengyun 1C debris cloud has become a focal point in discussions about space sustainability and the need for international regulations to prevent the creation of new debris.

Loading next visibility...
Identifier
41824, 1999-025EYB
Orbit
SSO
Country
Flag of CNCN / PRC
Related business
Manufacturer
Unknown
Mission
Spacecraft
Bus & Motor
Unknown
Mass
Unknown
Launch date (UTC)
1999-05-10 (27 years ago)
Launch vehicle
Unknown
Launch site
Taiyaun Space Center, China (TSC)
Object type
Payload
Rocket body
Debris
Shape & HBR
Unknown shape, 0.1 m
Radar Cross Section
Small (<0.1 m²)

Expand to show TLE details & history
Last TLE update: 3 days ago

TLE from 3 days ago
0 FENGYUN 1C DEB
1 41824U 99025EYB 26119.14314661  .00003061  00000-0  13009-2 0  9994
2 41824  98.7159 187.2799 0057359 187.7481 172.2818 14.25115023493164
Epoch: 2026-04-29T03:26Z
TLE epoch observation values (Epoch: 2026-04-29T03:26:07.867Z)
Latitude
0.00001°
Longitude
-81.36122°
Altitude
851.886 km
Speed
7.406 km/s
True Right ascension
12h 29m 07s
True Declination
0° 00' 00"
Sunlit
Object was in full shadow at epoch
Visualization orbit readout
Latitude
Unknown
Longitude
Unknown
Altitude
Unknown
Speed
Unknown
Apparent Right ascension
Unknown
Apparent Declination
Unknown
Sunlit
N/A
Visualization observer readout
Local Sidereal Time
00:37:30
Azimuth
Unknown
Elevation
Unknown
Doppler factor
Unknown
Orbital elements
Apogee altitude
846.461 km
Perigee altitude
764.055 km
Semi-major axis
7,183.395 km
Eccentricity
0.00574
Inclination
98.7159°
RAAN
187.2799°
Arg. of periapsis
187.7481°
True anomaly
172.36945°
Mean anomaly
172.2818°
Eccentric anomaly
172.32569°
Mean motion
3.56491 °/min
Orbital period
100.98 mins
BSTAR
0.0013009
Loading maneuver chart data...
Computing Atmospheric mass density...

Documentation

Showing up to 5 results
|